Home   Weather   Kopervik   Past weeks

Flag for Norway Past Weather in Kopervik, Norway — Yesterday and Last 2 Weeks

Now
64 °F

Sunny.


Feels Like: 64 °F
Forecast: 57 / 63 °F
Wind: 3 mph from Southwest

Location: Karmoy

Current Time: Jul 23, 2017 at 11:05:33 pm

Latest Report: Jul 23, 2017 at 10:20 pm


Visibility: 10 mi

Pressure: 29.92 "Hg

Humidity: 68%

Dew Point: 54 °F

Location of KopervikLocation

Past Weather in Kopervik — Graph

°F

Kopervik Temperature Yesterday

Maximum temperature yesterday: 68 °F (at 2:20 pm)
Minimum temperature yesterday: 57 °F (at 12:20 am)
Average temperature yesterday: 62 °F

High & Low Weather Summary for the Past Weeks

 TemperatureHumidityPressure
High79 °F (Jul 20, 2:50 pm)100% (Jul 9, 8:50 am)30.15 "Hg (Jul 9, 8:50 am)
Low50 °F (Jul 9, 12:20 am)32% (Jul 20, 2:50 pm)29.65 "Hg (Jul 11, 1:20 pm)
Average58 °F81%29.91 "Hg
* Reported Jul 8 9:20 pm — Jul 23 9:50 pm, Kopervik. Weather by CustomWeather, © 2017

Note: Actual official high and low records may vary slightly from our data, if they occured in-between our weather recording intervals... More about our weather records

Advertising

Kopervik Weather History for the Previous 24 Hours

Scroll right to see more
 ConditionsComfort  
Time TempWeatherWind HumidityBarometerVisibility
9:50 pm
Sun, Jul 23
68 °FSunny.7 mph56%29.89 "Hg10 mi
9:20 pm70 °FSunny.7 mph53%29.89 "Hg10 mi
8:50 pm70 °FSunny.7 mph53%29.89 "Hg10 mi
8:20 pm72 °FSunny.1 mph53%29.89 "Hg10 mi
7:50 pm68 °FSunny.7 mph69%29.89 "Hg10 mi
7:20 pm66 °FSunny.12 mph73%29.89 "Hg10 mi
6:50 pm66 °FPassing clouds.9 mph73%29.89 "HgN/A
6:20 pm66 °FSunny.16 mph73%29.86 "Hg10 mi
5:20 pm66 °FSunny.20 mph73%29.89 "Hg10 mi
4:50 pm64 °FSunny.18 mph78%29.89 "Hg10 mi
4:20 pm68 °FSunny.21 mph69%29.89 "Hg10 mi
3:50 pm68 °FSunny.21 mph64%29.89 "Hg10 mi
3:20 pm68 °FSunny.18 mph64%29.89 "Hg10 mi
2:50 pm68 °FSunny.20 mph64%29.92 "Hg10 mi
2:20 pm66 °FSunny.18 mph64%29.92 "Hg10 mi
1:50 pm66 °FSunny.17 mph64%29.92 "Hg10 mi
1:20 pm68 °FSunny.16 mph60%29.95 "Hg10 mi
12:50 pm66 °FSunny.15 mph64%29.95 "Hg10 mi
12:20 pm68 °FSunny.13 mph64%29.95 "Hg10 mi
11:50 am68 °FSunny.10 mph60%29.95 "Hg10 mi
11:20 am68 °FSunny.10 mph64%29.98 "Hg10 mi
10:50 am68 °FSunny.8 mph60%29.98 "Hg10 mi
10:20 am72 °FSunny.7 mph50%29.98 "Hg10 mi
9:50 am70 °FSunny.9 mph57%30.01 "Hg10 mi
9:20 am70 °FMild.7 mph57%30.01 "HgN/A
8:20 am66 °FMild.8 mph64%30.01 "HgN/A
7:20 am63 °FMild.6 mph73%30.01 "HgN/A
6:50 am63 °FMild.7 mph73%30.01 "HgN/A
6:20 am61 °FPassing clouds.7 mph72%29.98 "HgN/A
5:50 am57 °FPassing clouds.8 mph82%30.01 "HgN/A
5:20 am59 °FPassing clouds.7 mph82%30.01 "HgN/A
4:20 am59 °FPassing clouds.7 mph88%30.01 "HgN/A
3:20 am57 °FMostly cloudy.7 mph100%30.04 "HgN/A
2:50 am57 °FPassing clouds.5 mph94%30.04 "HgN/A
2:20 am59 °FMostly cloudy.3 mph88%30.04 "HgN/A
1:50 am59 °FPassing clouds.3 mph94%30.04 "HgN/A
1:20 am59 °FOvercast.5 mph94%30.04 "HgN/A
12:50 am59 °FOvercast.3 mph94%30.04 "HgN/A
12:20 am59 °FPassing clouds.No wind88%30.07 "HgN/A
11:50 pm
Sat, Jul 22
61 °FPassing clouds.3 mph88%30.07 "HgN/A
11:20 pm61 °FOvercast.5 mph83%30.07 "HgN/A
Weather by CustomWeather, © 2017

See weather overviewHow to use our weather pages